www.pogodaiklimat.ru
ПОГОДА в Алтуне
Время
и дата
13:53 27.09
14:32 27.09
14:53 27.09
15:53 27.09
16:53 27.09
17:53 27.09
18:53 27.09
19:53 27.09
20:53 27.09
21:53 27.09
22:53 27.09
23:53 27.09
00:53 28.09
01:53 28.09
02:53 28.09
03:38 28.09
03:53 28.09
04:53 28.09
05:53 28.09
06:00 28.09
06:53 28.09
07:53 28.09
08:53 28.09
09:53 28.09
10:06 28.09
10:53 28.09
11:53 28.09
12:21 28.09
12:35 28.09
12:53 28.09
13:02 28.09
13:53 28.09
14:53 28.09
15:53 28.09
16:53 28.09
17:53 28.09
18:53 28.09
19:53 28.09
20:53 28.09
21:53 28.09
22:53 28.09
23:06 28.09
23:14 28.09
23:29 28.09
23:53 28.09
00:53 29.09
01:53 29.09
02:53 29.09
Ветер
(напр.,м/с)
Видим. Явления Облачность Т
(С)
Тd
(С)
f
(%)
Тe
(С)
Тes
(С)
Комфортность P
(гПа)
Po
(гПа)
Тmin
(С)
Tmax
(С)
R
(мм)
R24
(мм)
S
(см)
СЗ 4 16 км 8/8 1500 m
[Ac]
+15.6 +6.7 55 +15 +16 1012.9 958.9
ЮЗ 7
{10}
16 км 10/0 2700 m
[Ac]
+13.9 +5.6 57 +12 +13 959.6
З 6
{9}
16 км слабый дождь 10/8 1380 m
[Ac Ns]
+11.7 +7.2 74 +9 +9 1014.4 960.2
штиль 0 16 км слабый дождь 10/0 2250 m
[Ac As]
+11.1 +7.8 80 +11 +13 1014.8 960.5 1.3
З 2 16 км 8/0 2850 m
[Ac]
+11.7 +7.8 77 +11 +12 1015.0 960.8
З 6
{9}
16 км 10/8 1230 m
[Ac]
+11.1 +5.6 69 +8 +8 1016.2 961.8
ЮЗ 3 16 км 8/8 1950 m
[Ac]
+10.0 +5.6 74 +8 +8 1017.1 962.5 +8.9 +16.7 1.3
З 3 16 км ясно +8.3 +5.0 80 +6 +6 1017.7 963.1
З 2 16 км ясно +8.3 +5.6 83 +6 +6 1017.7 963.4
З 4 16 км ясно +8.3 +5.0 80 +5 +5 1018.4 964.1
ЮЗ 2 16 км ясно +7.8 +5.0 82 +6 +6 1018.8 964.4
З 3 16 км ясно +7.8 +5.0 82 +5 +5 1018.9 964.4
З 3 16 км ясно +7.2 +5.0 86 +4 +4 1018.7 964.4 +6.1 +10.0
Ю 3 16 км ясно +6.1 +4.4 89 +3 +3 1019.1 964.7
Ю 2 16 км ясно +5.6 +4.4 92 +3 +3 1019.5 964.7
нст 2 16 км 8/8 570 м +6.1 +5.0 93 +4 +4 965.0
З 3 16 км 10/10 570 м +7.8 +5.6 86 +5 +5 1019.9 965.0
ЮЗ 2 16 км 10/10 540 м +8.3 +6.1 86 +6 +6 1020.3 965.7
СЗ 4 16 км 10/10 450 м +9.4 +6.7 83 +7 +7 1020.9 966.3
З 4 16 км 10/10 420 м +9.4 +6.7 83 +7 +7 966.3
СЗ 3 16 км 10/10 360 м +9.4 +7.2 86 +7 +7 1021.7 966.9 +5.6 +9.4 1.3
СЗ 3 16 км 10/10 360 м +11.7 +7.8 77 +10 +10 1022.1 967.3
З 4 16 км 10/10 390 м +12.2 +7.8 74 +10 +10 1022.7 967.9
СЗ 3 16 км 10/10 390 м +11.7 +7.8 77 +10 +10 1023.9 968.9
СЗ 2 16 км 10/10 450 м +12.2 +7.8 74 +11 +11 969.2
нст 3 16 км 10/10 570 м +13.3 +8.3 72 +12 +12 1024.0 969.2
СЗ 5
{9}
16 км 10/10 840 м +15.6 +7.8 60 +14 +14 1024.1 969.5
СЗ 4 16 км 10/10 900 м +15.0 +7.8 62 +14 +14 969.5
СЗ 4 16 км 10/10 840 м +15.0 +7.8 62 +14 +14 969.2
СЗ 6
{9}
16 км 10/10 870 м +16.1 +7.8 58 +15 +15 1023.8 969.2 +9.4 +16.7
СЗ 5 16 км 8/8 960 м +16.1 +7.8 58 +15 +16 969.2
З 4 16 км 10/10 1020 м +16.7 +7.2 53 +16 +16 1023.9 969.2
СЗ 3 16 км 10/10 1170 м +16.1 +7.2 56 +16 +16 1024.2 969.5
З 4
{8}
16 км 10/10 1170 м +15.6 +7.8 60 +15 +15 1024.4 969.8
З 4 16 км 10/8 1800 m
[Ac]
+13.3 +8.9 75 +12 +12 1025.1 970.1
штиль 0 16 км 8/8 1950 m
[Ac]
+11.7 +8.9 83 +11 +11 1026.0 971.1
З 2 16 км 10/10 1290 м +12.2 +8.9 80 +11 +11 1026.4 971.4 +11.7 +17.8
З 2 16 км 8/8 1470 m
[Ac]
+11.7 +8.9 83 +11 +11 1027.0 972.1
СЗ 2 16 км 2/2 1260 m
[Ac]
+10.6 +8.3 86 +9 +9 1027.4 972.4
штиль 0 16 км 10/5 960 m
[Ac]
+10.0 +8.3 89 +9 +9 1028.1 973.0
штиль 0 16 км 5/5 810 м +10.6 +8.3 86 +10 +10 1028.4 973.4
штиль 0 16 км 8/8 870 м +9.4 +7.8 90 +9 +9 973.7
штиль 0 16 км 5/5 870 м +10.0 +7.8 86 +9 +9 973.7
штиль 0 16 км 8/8 630 м +9.4 +7.8 90 +9 +9 973.7
С 2 16 км 5/5 900 м +10.6 +8.3 86 +9 +9 1028.5 973.7
С 3 16 км 10/10 1050 м +10.6 +8.9 89 +8 +8 1028.7 973.7 +8.9 +12.2
СВ 2 16 км 8/8 510 м +8.9 +7.8 93 +7 +7 1028.9 974.0
С 2 16 км ясно +7.8 +6.7 93 +6 +6 1029.0 974.0
Местоположение метеостанции Altoona-Blair County Airport: широта 40.3000 долгота -78.3169 высота над уровнем моря 458 м.
В архиве по умолчанию представлена погода в Алтуне за последние 1-2 суток. Обновление информации о фактической погоде в базе происходит ежечасно! Архивные данные за месяц целиком и за предыдущие месяцы Вы можете получить, выбрав интересующий диапазон дат из раскрывающегося списка и нажав кнопку "Ввод!".
Внимание! Архив погоды МЕТАР в базе сайта по станциям, не включенным в климатический монитор, хранится не более 60 дней. Нет смысла пытаться выбрать более раннюю дату.
*Определитесь, кто Вы:
Внимание! Время в таблицах - местное (без учета летнего времени). Для получения всемирного времени необходимо вычесть поправку, которая равна -5 ч.
Смотрите также архив погоды в соседних городах и на ближайших метеорологических станциях:
Партнеры нашего сайта:      
Пояснения к столбцам:
  • Ветер - указаны скорость ветра в м/с - средняя за 10 мин, порывы в срок и между сроками (в фигурных скобках) и направление, откуда дует ветер: С - северный,
  • СВ - северо-восточный, В - восточный, ЮВ - юго-восточный, Ю - южный, ЮЗ - юго-западный, З - западный, СЗ - северо-западный.
  • Видимость - горизонтальная дальность видимости в метрах или километрах. При видимости от 1 до 10 км при отсутствии осадков обычно наблюдается дымка, при ухудшении видимости до 1 км и менее - туман. В сухую погоду видимость может ухудшаться дымом, пылью или мглою.
  • Явления - указаны атмосферные явления, наблюдавшиеся в срок или в последний час перед сроком; фигурными скобками обозначены явления, наблюдавшиеся между сроками (за 1-3 часа до срока); квадратными скобками обозначены град или гололедные отложения с указанием их диаметра в мм.
  • Облачность - указаны через наклонную черту общая и нижняя облачность в баллах и высота нижней границы облаков в метрах; квадратными скобками обозначены формы облаков: Ci - перистые, Cs - перисто-слоистые, Cc - перисто-кучевые, Ac - высококучевые, As - высокослоистые, Sc - слоисто-кучевые, Ns - слоисто-дождевые, Cu - кучевые, Cb - кучево-дождевые. Подробнее классификацию облаков см. в Атласе облаков (PDF).
  • T - Температура воздуха - температура, измеренная на высоте 2 м над землей.
  • Td - Температура точки росы - температура, при понижении до которой содержащийся в воздухе водяной пар достигнет насыщения.
  • f - Относительная влажность воздуха - влажноcть воздуха, измеренная на высоте 2 м над землей.
  • Te - Эффективная температура - температура, которую ощущает одетый по сезону человек в тени. Характеристика душности погоды. При расчете учитывается влияние влажности воздуха и скорости ветра на теплоощущения человека.
  • Tes - Эффективная температура на солнце - температура, которую ощущает человек, с поправкой на солнечный нагрев. Характеристика знойности погоды. Зависит от высоты солнца над горизонтом, облачности и скорости ветра. Ночью, в пасмурную погоду, а также при ветре 12 м/с и более поправка равна нулю.
  • P - Атмосферное давление - приведенное к уровню моря атмосферное давление.
  • Po - Атмосферное давление - измеренное на уровне метеостанции атмосферное давление.
  • Tmin - Минимальная температура - минимум температуры воздуха на высоте 2 м над землей.
  • Tmax - Максимальная температура - максимум температуры воздуха на высоте 2 м над землей.
  • R - Количество осадков - Количество выпавших осадков за период времени, мм. При наведении курсора мыши на число - период времени, за который выпало указанное количество осадков.
  • R24 - Количество осадков - Количество выпавших осадков за 24 часа, мм.
  • S - Снежный покров - Высота снежного покрова, см. При наведении курсора мыши на число - состояние снежного покрова и степень покрытия местности в баллах.